This is the latest recevied weather packets stored in our database for station/object K1RFS. If no packets are shown the sender has not sent any weather packets the latest 10 day(s).
| Time | Temp. | Humidity | Pressure | Rain* | Wind** | Luminosity | Snow |
|---|---|---|---|---|---|---|---|
| 1787513412 | 32.78° C | 32% | 1006.3 hPa | 0 mm | - | 639 W/m² | - |
| 1787513108 | 32.78° C | 32% | 1006.4 hPa | 0 mm | - | 643 W/m² | - |
| 1787512804 | 32.22° C | 32% | 1006.3 hPa | 0 mm | - | 633 W/m² | - |
| 1787512500 | 32.78° C | 32% | 1006.6 hPa | 0 mm | - | 625 W/m² | - |
| 1787512195 | 32.22° C | 33% | 1006.6 hPa | 0 mm | - | 617 W/m² | - |
| 1787511891 | 31.67° C | 33% | 1006.6 hPa | 0 mm | - | 614 W/m² | - |
| 1787511591 | 31.67° C | 34% | 1006.8 hPa | 0 mm | - | 611 W/m² | - |
| 1787511289 | 31.67° C | 35% | 1006.8 hPa | 0 mm | - | 607 W/m² | - |
| 1787510989 | 31.67° C | 34% | 1006.9 hPa | 0 mm | - | 603 W/m² | - |
| 1787510683 | 31.11° C | 34% | 1006.8 hPa | 0 mm | - | 602 W/m² | - |
| 1787510380 | 30.56° C | 35% | 1006.9 hPa | 0 mm | - | 606 W/m² | - |
| 1787510075 | 30.56° C | 35% | 1006.9 hPa | 0 mm | - | 612 W/m² | - |
| 1787509771 | 30.56° C | 37% | 1007.1 hPa | 0 mm | - | 616 W/m² | - |
| 1787509468 | 30.56° C | 36% | 1007 hPa | 0 mm | - | 548 W/m² | - |
| 1787509164 | 30° C | 37% | 1007.2 hPa | 0 mm | - | 612 W/m² | - |
| 1787508858 | 29.44° C | 38% | 1007.2 hPa | 0 mm | - | 625 W/m² | - |
| 1787508554 | 30° C | 36% | 1007.3 hPa | 0 mm | - | 239 W/m² | - |
| 1787508250 | 30.56° C | 33% | 1007.2 hPa | 0 mm | - | 365 W/m² | - |
| 1787507945 | 30.56° C | 35% | 1007.4 hPa | 0 mm | - | 562 W/m² | - |
| 1787507642 | 30° C | 35% | 1007.3 hPa | 0 mm | - | 545 W/m² | - |
| 1787507337 | 29.44° C | 35% | 1007.3 hPa | 0 mm | - | 65 W/m² | - |
| 1787507033 | 29.44° C | 35% | 1007.4 hPa | 0 mm | - | 54 W/m² | - |
| 1787506729 | 29.44° C | 37% | 1007.4 hPa | 0 mm | - | 51 W/m² | - |
| 1787506425 | 29.44° C | 39% | 1007.7 hPa | 0 mm | - | 48 W/m² | - |
| 1787506120 | 28.89° C | 41% | 1007.6 hPa | 0 mm | - | 46 W/m² | - |
* Rain latest hour (hover to see other rain measurements)
** Current wind speed in m/s (hover to see current wind gust speed)